Location: Newark
(40.7360°N, 74.1730°W)
Time: 22:22:02
(UTC-04:00)

Amateur Radio Satellites - All Passes

Search period start: 29 May 2015 21:52
Search period end: 30 May 2015 21:52
Location: Newark, 40.7360°N, 74.1730°W

Satellite Date Start Highest point End Downlink Frequencies (MHz)
Time Altitude Azimuth
ZACube-1 29 May 21:54:37 21:59:10 63° 75° (ENE) 22:03:41 437.345
AIST 1 29 May 21:57:23 21:59:47 14° 292° (WNW) 22:02:01
HO-68 29 May 21:57:58 22:04:12 30° 266° (W) 22:10:18 435.675
SEEDS 29 May 22:00:11 22:03:23 20° 267° (W) 22:06:28 437.485
Oscar 11 29 May 22:00:20 22:04:38 63° 259° (W) 22:08:56 145.826/435.025
DX 1 29 May 22:03:54 22:07:55 38° 71° (ENE) 22:12:00 434.975-435.025
CUBEBUG 2 29 May 22:06:22 22:11:06 63° 260° (W) 22:15:49 437.445
COMPASS 1 29 May 22:08:27 22:11:36 20° 267° (W) 22:14:40 437.405
ISS 29 May 22:09:09 22:12:03 31° 137° (SE) 22:15:00 145.825
DANDE 29 May 22:15:51 22:18:16 12° 50° (NE) 22:20:57 436.750
AAUSAT CUBESAT 2 29 May 22:18:08 22:21:06 18° 268° (W) 22:23:57 437.432
CUBEBUG 1 29 May 22:21:04 22:23:31 15° 65° (ENE) 22:26:09 437.445
GONETS M04 29 May 22:21:39 22:25:20 14° 55° (NE) 22:29:37
DOVE 4 29 May 22:22:43 22:25:34 14° 273° (W) 22:28:12 437.250
DELFI C3 29 May 22:23:20 22:27:12 45° 261° (W) 22:31:05 145.870
UNISAT 6 29 May 22:23:46 22:25:18 12° 88° (E) 22:27:04 437.425
CUSAT 1 29 May 22:25:24 22:29:15 16° 55° (NE) 22:32:55 437.405
VELOX 1 29 May 22:30:04 22:34:07 36° 71° (ENE) 22:38:13 145.980
ESTCUBE 1 29 May 22:45:18 22:49:14 31° 70° (ENE) 22:53:13 437.505/2401.250
UWE-3 29 May 22:47:58 22:52:03 29° 265° (W) 22:56:05 435.000/436.395/437.385
FUNcube-1 29 May 22:49:22 22:53:35 35° 264° (W) 22:57:44 145.935
Cosmos 2504 29 May 22:54:43 23:00:08 23° 276° (W) 23:05:17 435.465 / 435.565
HUMSAT D 29 May 22:59:33 23:03:48 54° 261° (W) 23:08:01 437.325/437.525
AISAT 29 May 23:02:23 23:06:50 85° 77° (ENE) 23:11:21 437.250
ANTELSAT 29 May 23:05:15 23:09:15 35° 97° (E) 23:13:11 437.575/2403.000
50 SAT 29 May 23:12:14 23:16:13 66° 259° (W) 23:20:11 437.505
QB50P1 29 May 23:22:06 23:25:33 24° 94° (E) 23:29:03 145.935-145.965
POLYITAN 1 29 May 23:25:46 23:29:22 27° 95° (E) 23:33:01 437.675
UKube-1 29 May 23:26:59 23:30:43 27° 265° (W) 23:34:25 .
ZACube-1 29 May 23:33:54 23:35:59 13° 272° (W) 23:37:50 437.345
TIGRISAT 29 May 23:36:20 23:40:43 78° 102° (ESE) 23:44:59 435.000
DX 1 29 May 23:41:12 23:44:21 19° 268° (W) 23:47:23 434.975-435.025
ISS 29 May 23:45:30 23:48:28 31° 333° (NNW) 23:51:26 145.825
O/OREOS (USA 219) 29 May 23:47:20 23:48:59 12° 50° (NE) 23:50:50 437.305
NANOSAT C BR1 29 May 23:51:44 23:55:55 51° 99° (E) 00:00:03 145.865
CUBEBUG 1 29 May 23:55:14 23:59:30 51° 260° (W) 00:03:48 437.445
DANDE 29 May 23:56:06 00:03:42 64° 76° (ENE) 00:09:31 436.750
UNISAT 6 29 May 23:58:17 00:02:35 57° 286° (WNW) 00:06:47 437.425
QB50P2 30 May 00:02:06 00:06:22 71° 101° (ESE) 00:10:37 145.880/145.840
CUSAT 1 30 May 00:06:25 00:13:23 84° 263° (W) 00:18:37 437.405
VELOX 1 30 May 00:07:26 00:10:48 20° 267° (W) 00:14:05 145.980
DUCHIFAT 1 30 May 00:12:49 00:17:06 89° 100° (E) 00:21:21 145.980
POPSAT HIP 1 30 May 00:13:32 00:17:50 88° 284° (WNW) 00:22:05 437.405
GONETS M04 30 May 00:15:32 00:24:18 69° 79° (E) 00:33:00
BUGSAT 1 30 May 00:21:28 00:25:45 77° 102° (ESE) 00:29:59 437.445
SPROUT 30 May 00:21:35 00:25:55 84° 77° (ENE) 00:30:17 437.525
ESTCUBE 1 30 May 00:22:29 00:26:09 24° 266° (W) 00:29:44 437.505/2401.250
PCSat 30 May 00:26:57 00:32:18 70° 117° (ESE) 00:37:44 145.827
TISAT 1 30 May 00:32:25 00:36:40 81° 76° (ENE) 00:40:58 437.305
ANTELSAT 30 May 00:42:34 00:45:50 20° 293° (WNW) 00:48:56 437.575/2403.000
QB50P1 30 May 00:57:43 01:01:25 28° 290° (WNW) 01:05:02 145.935-145.965
POLYITAN 1 30 May 01:01:38 01:05:13 26° 291° (WNW) 01:08:42 437.675
VERMONT LUNAR 30 May 01:02:26 01:05:28 38° 159° (SSE) 01:08:29 437.305
Oscar 19 30 May 01:05:19 01:06:40 11° 87° (E) 01:08:23 437.125/150
BEESAT 2 30 May 01:12:47 01:15:11 15° 41° (NE) 01:17:42 435.950
TIGRISAT 30 May 01:16:22 01:16:52 10° 298° (WNW) 01:17:08 435.000
ITUPSAT 1 30 May 01:19:22 01:23:48 41° 71° (ENE) 01:28:17 437.325
Cosmos 2499 30 May 01:20:28 01:26:35 31° 71° (ENE) 01:32:55 435.465 / 435.565
ISS 30 May 01:24:00 01:25:39 13° 353° (N) 01:27:17 145.825
O/OREOS (USA 219) 30 May 01:24:35 01:29:04 77° 249° (WSW) 01:33:31 437.305
BEESAT 30 May 01:24:49 01:29:21 47° 72° (ENE) 01:33:56 436.000
NANOSAT C BR1 30 May 01:28:57 01:31:21 14° 295° (WNW) 01:33:35 145.865
SWISSCUBE 30 May 01:33:41 01:38:22 64° 74° (ENE) 01:43:06 437.505
QB50P2 30 May 01:40:30 01:41:44 11° 297° (WNW) 01:42:45 145.880/145.840
DANDE 30 May 01:40:41 01:46:00 21° 279° (W) 01:50:17 436.750
CUSAT 1 30 May 01:52:41 01:54:33 11° 284° (WNW) 01:55:52 437.405
BEESAT 3 30 May 01:56:26 02:00:20 42° 53° (NE) 02:04:11 437.485
BUGSAT 1 30 May 02:00:00 02:00:39 10° 297° (WNW) 02:01:04 437.445
PHONESAT 2.4 30 May 02:10:03 02:13:18 36° 158° (SSE) 02:16:33 2401.200-2431.200
PCSat 30 May 02:12:20 02:16:19 20° 316° (NW) 02:20:13 145.827
KKS-1 30 May 02:13:30 02:17:14 27° 68° (ENE) 02:21:02 437.445
GONETS M04 30 May 02:13:40 02:20:27 25° 278° (W) 02:26:50
Gurwin Techsat 1B 30 May 02:21:30 02:25:01 18° 90° (E) 02:28:43 435.225
SO-50 30 May 02:36:20 02:40:57 65° 119° (ESE) 02:45:45 436.795
VERMONT LUNAR 30 May 02:39:17 02:42:30 86° 182° (S) 02:45:44 437.305
Oscar 19 30 May 02:41:36 02:46:47 81° 286° (WNW) 02:51:55 437.125/150
BEESAT 2 30 May 02:49:39 02:53:44 64° 241° (WSW) 02:57:43 435.950
ITUPSAT 1 30 May 02:58:18 03:01:53 20° 268° (W) 03:05:22 437.325
AIST 2 30 May 03:00:40 03:04:46 46° 53° (NE) 03:08:47 435.215
ISS 30 May 03:01:06 03:03:05 15° 13° (NNE) 03:05:06 145.825
ITAMSAT 1 30 May 03:03:00 03:08:01 46° 99° (E) 03:13:03 435.822/435.867
BEESAT 30 May 03:04:15 03:07:30 18° 269° (W) 03:10:36 436.000
STARS 30 May 03:08:46 03:13:09 64° 74° (ENE) 03:17:36 437.465
AO-7 30 May 03:11:43 03:13:19 11° 83° (E) 03:15:43 29.400- 29.500
Cosmos 2499 30 May 03:13:18 03:19:55 44° 270° (W) 03:26:37 435.465 / 435.565
SWISSCUBE 30 May 03:14:27 03:16:45 13° 271° (W) 03:18:48 437.505
BEESAT 3 30 May 03:35:18 03:38:01 17° 249° (WSW) 03:40:35 437.485
PHONESAT 2.4 30 May 03:47:45 03:51:15 84° 176° (S) 03:54:45 2401.200-2431.200
KKS-1 30 May 03:49:53 03:53:48 28° 264° (W) 03:57:41 437.445
Gurwin Techsat 1B 30 May 04:00:12 04:05:25 55° 288° (WNW) 04:10:35 435.225
MOZHAYETS 4 30 May 04:06:11 04:10:14 33° 71° (ENE) 04:14:22
JAS-2 30 May 04:14:01 04:18:47 36° 97° (E) 04:23:48 435.910
VERMONT LUNAR 30 May 04:16:29 04:19:40 66° 192° (SSW) 04:22:51 437.305
SO-50 30 May 04:18:29 04:22:00 20° 319° (NW) 04:25:29 436.795
Oscar 19 30 May 04:24:14 04:25:24 11° 301° (WNW) 04:26:15 437.125/150
HORYU 2 30 May 04:34:04 04:38:28 60° 101° (E) 04:42:50 437.375
ISS 30 May 04:36:55 04:40:06 50° 32° (NNE) 04:43:17 145.825
AIST 2 30 May 04:40:16 04:43:00 17° 249° (WSW) 04:45:34 435.215
ITAMSAT 1 30 May 04:43:12 04:47:15 23° 295° (WNW) 04:51:10 435.822/435.867
STARS 30 May 04:48:29 04:50:08 11° 272° (W) 04:51:29 437.465
AO-7 30 May 04:59:36 05:07:56 67° 104° (ESE) 05:16:15 29.400- 29.500
PHONESAT 2.4 30 May 05:25:53 05:29:21 71° 192° (SSW) 05:32:49 2401.200-2431.200
MOZHAYETS 4 30 May 05:43:51 05:47:33 23° 267° (W) 05:51:09
PRISM 30 May 05:50:41 05:52:46 14° 65° (ENE) 05:55:01 437.425
VERMONT LUNAR 30 May 05:54:05 05:56:32 20° 208° (SSW) 05:58:58 437.305
CUBESAT XI-V 30 May 05:54:18 05:58:30 37° 71° (ENE) 06:02:47 437.345
JAS-2 30 May 05:59:34 06:03:52 26° 293° (WNW) 06:08:11 435.910
M-CUBED/EXP-1 PRIME 30 May 06:00:19 06:01:09 11° 61° (ENE) 06:02:12 437.505
Cosmos 2491 30 May 06:01:00 06:09:30 50° 75° (ENE) 06:18:00 435.465 / 435.565
Cubesat XI-IV 30 May 06:03:49 06:06:43 15° 89° (E) 06:09:53 437.490
AUBIESAT-1 30 May 06:05:25 06:05:58 10° 61° (ENE) 06:06:43 437.475
HORYU 2 30 May 06:12:23 06:14:40 14° 296° (WNW) 06:16:45 437.375
ISS 30 May 06:13:57 06:16:17 18° 227° (SW) 06:18:34 145.825
AIST 1 30 May 06:26:44 06:28:29 12° 67° (ENE) 06:30:27
RS-15 30 May 06:50:32 06:56:28 18° 101° (E) 07:03:15 29.354- 29.394
YUBILEINY 30 May 06:50:44 06:58:47 44° 89° (E) 07:06:56 435.215
AO-7 30 May 06:53:14 07:00:12 30° 302° (WNW) 07:07:00 29.400- 29.500
STRAND 1 30 May 06:58:02 07:03:06 72° 74° (ENE) 07:08:12 437.568
PHONESAT 2.4 30 May 07:04:18 07:07:11 24° 207° (SSW) 07:10:02 2401.200-2431.200
CUTE-I 30 May 07:20:17 07:25:42 78° 103° (ESE) 07:31:05 437.470
PRISM 30 May 07:23:54 07:27:51 48° 260° (W) 07:31:50 437.425
M-CUBED/EXP-1 PRIME 30 May 07:31:34 07:35:42 66° 253° (WSW) 07:39:30 437.505
CUBESAT XI-V 30 May 07:32:32 07:36:05 21° 268° (W) 07:39:34 437.345
PCSat 30 May 07:34:51 07:35:39 10° 34° (NE) 07:36:41 145.827
AUBIESAT-1 30 May 07:36:21 07:40:26 67° 253° (WSW) 07:44:12 437.475
Cubesat XI-IV 30 May 07:42:03 07:47:24 68° 287° (WNW) 07:52:44 437.490
Cosmos 2491 30 May 07:58:20 08:06:09 36° 274° (W) 08:13:44 435.465 / 435.565
GOMX 1 30 May 08:00:55 08:02:51 12° 85° (E) 08:05:04 467.674
AIST 1 30 May 08:02:18 08:06:37 58° 265° (W) 08:10:56
BRITE-PL 30 May 08:14:28 08:19:13 29° 92° (E) 08:23:51 437.365/2234.400
STRAND 1 30 May 08:40:31 08:42:56 13° 272° (W) 08:45:03 437.568
DOVE 4 30 May 08:43:01 08:46:38 20° 90° (E) 08:50:15 437.250
YUBILEINY 30 May 08:47:35 08:55:44 40° 288° (WNW) 09:03:46 435.215
RS-15 30 May 08:56:24 09:07:15 81° 119° (ESE) 09:18:26 29.354- 29.394
CUTE-I 30 May 09:02:12 09:05:11 15° 299° (WNW) 09:07:57 437.470
PCSat 30 May 09:15:09 09:20:28 52° 56° (NE) 09:25:45 145.827
UNISAT 6 30 May 09:22:44 09:24:43 13° 64° (ENE) 09:26:54 437.425
CANX-2 30 May 09:23:37 09:27:45 53° 99° (E) 09:31:53 2200.000
HO-68 30 May 09:24:33 09:31:32 54° 100° (E) 09:38:31 435.675
CUTE 1.7 + AOD 2 30 May 09:26:36 09:30:44 51° 99° (E) 09:34:51 437.475
SO-50 30 May 09:29:51 09:31:15 11° 32° (NNE) 09:32:49 436.795
CINEMA 3 30 May 09:31:21 09:35:21 29° 94° (E) 09:39:15 145.822/145.860
GOMX 1 30 May 09:36:26 09:41:47 77° 285° (WNW) 09:46:46 467.674
Cosmos 2504 30 May 09:37:06 09:45:00 53° 92° (E) 09:52:28 435.465 / 435.565
SEEDS 30 May 09:43:27 09:47:37 67° 101° (E) 09:51:45 437.485
ZACube-1 30 May 09:46:07 09:47:27 11° 88° (E) 09:49:00 437.345
Oscar 11 30 May 09:48:31 09:51:54 23° 93° (E) 09:55:23 145.826/435.025
COMPASS 1 30 May 09:50:48 09:54:56 64° 100° (E) 09:59:03 437.405
BRITE-PL 30 May 09:52:39 09:57:49 38° 291° (WNW) 10:02:40 437.365/2234.400
CUBEBUG 2 30 May 09:58:37 10:02:20 27° 94° (E) 10:05:59 437.445
AAUSAT CUBESAT 2 30 May 09:59:47 10:03:55 70° 102° (ESE) 10:08:02 437.432
DELFI C3 30 May 10:03:12 10:06:23 23° 94° (E) 10:09:39 145.870
ANTELSAT 30 May 10:03:44 10:07:53 33° 70° (ENE) 10:12:02 437.575/2403.000
QB50P1 30 May 10:15:06 10:18:03 19° 67° (ENE) 10:21:08 145.935-145.965
POLYITAN 1 30 May 10:18:54 10:22:06 21° 68° (ENE) 10:25:25 437.675
DOVE 4 30 May 10:19:53 10:24:41 43° 289° (WNW) 10:29:09 437.250
TIGRISAT 30 May 10:34:14 10:38:53 67° 75° (ENE) 10:43:29 435.000
UWE-3 30 May 10:37:47 10:42:05 59° 100° (E) 10:46:15 435.000/436.395/437.385
FUNcube-1 30 May 10:37:58 10:42:04 44° 98° (E) 10:46:05 145.935
NANOSAT C BR1 30 May 10:43:57 10:47:52 37° 72° (ENE) 10:51:51 145.865
HUMSAT D 30 May 10:44:31 10:47:49 23° 94° (E) 10:51:10 437.325/437.525
50 SAT 30 May 10:50:22 10:52:21 14° 91° (E) 10:54:29 437.505
QB50P2 30 May 10:54:30 10:58:39 51° 74° (ENE) 11:02:51 145.880/145.840
AISAT 30 May 10:54:35 10:57:25 17° 91° (E) 11:00:24 437.250
UNISAT 6 30 May 10:56:20 11:01:00 70° 259° (WSW) 11:05:37 437.425
PCSat 30 May 10:59:26 11:03:33 22° 253° (WSW) 11:07:30 145.827
CANX-2 30 May 11:01:06 11:03:17 14° 295° (WNW) 11:05:17 2200.000
CUTE 1.7 + AOD 2 30 May 11:04:00 11:06:16 14° 294° (WNW) 11:08:21 437.475
DUCHIFAT 1 30 May 11:04:34 11:08:47 63° 75° (ENE) 11:13:03 145.980
POPSAT HIP 1 30 May 11:05:42 11:09:57 67° 76° (ENE) 11:14:14 437.405
SO-50 30 May 11:08:05 11:12:58 55° 53° (NE) 11:17:47 436.795
CINEMA 3 30 May 11:08:33 11:12:30 27° 292° (WNW) 11:16:12 145.822/145.860
BUGSAT 1 30 May 11:11:02 11:15:02 50° 74° (ENE) 11:19:10 437.445
RS-15 30 May 11:11:11 11:21:00 35° 326° (NW) 11:30:59 29.354- 29.394
HO-68 30 May 11:12:53 11:18:58 30° 298° (WNW) 11:24:52 435.675
UKube-1 30 May 11:14:01 11:18:14 48° 99° (E) 11:22:26 .
GOMX 1 30 May 11:18:05 11:18:59 10° 301° (WNW) 11:19:33 467.674
ZACube-1 30 May 11:20:05 11:24:19 57° 286° (WNW) 11:28:25 437.345
SEEDS 30 May 11:21:40 11:22:55 11° 296° (WNW) 11:23:58 437.485
Oscar 11 30 May 11:24:21 11:28:08 30° 290° (WNW) 11:31:51 145.826/435.025
DANDE 30 May 11:24:37 11:28:30 15° 79° (ENE) 11:33:07 436.750
GONETS M04 30 May 11:24:38 11:28:41 15° 78° (ENE) 11:33:24
DX 1 30 May 11:28:11 11:32:36 76° 102° (ESE) 11:36:58 434.975-435.025
COMPASS 1 30 May 11:28:47 11:30:08 11° 296° (WNW) 11:31:17 437.405
CUSAT 1 30 May 11:28:57 11:34:24 22° 83° (E) 11:40:29 437.405
Cosmos 2504 30 May 11:31:35 11:38:43 31° 290° (WNW) 11:45:17 435.465 / 435.565
CUBEBUG 2 30 May 11:35:17 11:38:59 26° 291° (WNW) 11:42:30 437.445
DELFI C3 30 May 11:38:06 11:41:29 26° 290° (WNW) 11:44:49 145.870
AAUSAT CUBESAT 2 30 May 11:38:17 11:39:01 10° 296° (WNW) 11:39:31 437.432
ANTELSAT 30 May 11:40:50 11:44:43 25° 266° (W) 11:48:27 437.575/2403.000
CUBEBUG 1 30 May 11:44:34 11:48:26 29° 95° (E) 11:52:20 437.445
QB50P1 30 May 11:49:39 11:53:40 38° 262° (W) 11:57:42 145.935-145.965
POLYITAN 1 30 May 11:53:52 11:57:49 34° 263° (W) 12:01:46 437.675
VELOX 1 30 May 11:56:45 12:01:15 77° 102° (ESE) 12:05:43 145.980
SPROUT 30 May 12:10:00 12:12:25 15° 90° (E) 12:15:01 437.525
TIGRISAT 30 May 12:14:09 12:16:08 12° 272° (W) 12:17:50 435.000
ESTCUBE 1 30 May 12:14:15 12:18:48 72° 102° (ESE) 12:23:20 437.505/2401.250
FUNcube-1 30 May 12:15:22 12:18:04 16° 294° (WNW) 12:20:34 145.935
UWE-3 30 May 12:16:06 12:18:08 13° 296° (WNW) 12:19:57 435.000/436.395/437.385
TISAT 1 30 May 12:19:02 12:20:57 13° 89° (E) 12:23:04 437.305
HUMSAT D 30 May 12:20:02 12:23:34 27° 290° (WNW) 12:27:00 437.325/437.525
NANOSAT C BR1 30 May 12:20:48 12:23:52 18° 268° (W) 12:26:50 145.865
Oscar 19 30 May 12:20:58 12:24:21 18° 64° (ENE) 12:27:55 437.125/150
50 SAT 30 May 12:23:39 12:27:18 39° 287° (WNW) 12:30:53 437.505
AISAT 30 May 12:29:58 12:34:17 45° 288° (WNW) 12:38:31 437.250
QB50P2 30 May 12:32:37 12:34:55 14° 270° (W) 12:37:00 145.880/145.840
DUCHIFAT 1 30 May 12:43:48 12:45:06 11° 272° (W) 12:46:07 145.980
POPSAT HIP 1 30 May 12:45:30 12:46:22 10° 272° (W) 12:46:56 437.405
BUGSAT 1 30 May 12:48:45 12:50:54 13° 271° (W) 12:52:51 437.445
SO-50 30 May 12:49:38 12:53:09 19° 249° (WSW) 12:56:28 436.795
UKube-1 30 May 12:51:16 12:54:02 16° 295° (WNW) 12:56:37 .
DANDE 30 May 13:02:57 13:10:23 77° 96° (E) 13:18:59 436.750
DX 1 30 May 13:06:59 13:08:18 11° 298° (WNW) 13:09:22 434.975-435.025
CUSAT 1 30 May 13:08:34 13:16:14 80° 280° (W) 13:24:39 437.405
GONETS M04 30 May 13:15:28 13:24:18 80° 95° (E) 13:33:11
CUBEBUG 1 30 May 13:21:00 13:24:43 26° 291° (WNW) 13:28:20 437.445
ITUPSAT 1 30 May 13:23:05 13:23:47 10° 87° (E) 13:24:50 437.325
BEESAT 30 May 13:27:18 13:29:06 12° 88° (E) 13:31:10 436.000
RS-15 30 May 13:30:25 13:38:10 20° 360° (N) 13:46:07 29.354- 29.394
SWISSCUBE 30 May 13:35:28 13:38:26 17° 91° (E) 13:41:37 437.505
VELOX 1 30 May 13:35:51 13:37:15 11° 298° (WNW) 13:38:24 145.980
Gurwin Techsat 1B 30 May 13:42:04 13:46:32 29° 67° (ENE) 13:51:06 435.225
SPROUT 30 May 13:44:39 13:48:50 46° 287° (WNW) 13:52:57 437.525
TISAT 1 30 May 13:52:57 13:57:07 52° 287° (WNW) 14:01:14 437.305
ESTCUBE 1 30 May 13:53:17 13:55:09 12° 297° (WNW) 13:56:48 437.505/2401.250
Cosmos 2499 30 May 13:57:20 14:03:35 27° 86° (E) 14:09:44 435.465 / 435.565
Oscar 19 30 May 13:58:11 14:03:18 58° 260° (W) 14:08:27 437.125/150
O/OREOS (USA 219) 30 May 14:00:15 14:01:54 12° 100° (E) 14:03:49 437.305
AO-7 30 May 14:09:08 14:14:31 20° 52° (NE) 14:20:13 29.400- 29.500
ITAMSAT 1 30 May 14:20:39 14:25:46 69° 74° (ENE) 14:30:58 435.822/435.867
JAS-2 30 May 14:27:38 14:31:31 18° 64° (ENE) 14:35:23 435.910
DANDE 30 May 14:48:20 14:54:42 25° 299° (WNW) 15:01:18 436.750
CUSAT 1 30 May 14:54:59 15:00:25 19° 302° (WNW) 15:05:39 437.405
ITUPSAT 1 30 May 14:57:33 15:02:22 79° 284° (WNW) 15:07:09 437.325
STARS 30 May 15:00:57 15:02:32 12° 89° (E) 15:04:22 437.465
BEESAT 30 May 15:02:45 15:07:31 68° 285° (WNW) 15:12:15 436.000
SWISSCUBE 30 May 15:12:00 15:16:38 50° 288° (WNW) 15:21:15 437.505
GONETS M04 30 May 15:15:37 15:22:21 22° 298° (WNW) 15:28:43
Gurwin Techsat 1B 30 May 15:21:33 15:26:25 36° 264° (W) 15:31:16 435.225
HORYU 2 30 May 15:31:53 15:36:14 53° 73° (ENE) 15:40:37 437.375
O/OREOS (USA 219) 30 May 15:36:24 15:40:52 61° 294° (WNW) 15:45:19 437.305
KKS-1 30 May 15:40:33 15:44:57 55° 100° (E) 15:49:20 437.445
RS-15 30 May 15:45:29 15:55:29 34° 33° (NNE) 16:06:03 29.354- 29.394
Cosmos 2499 30 May 15:48:31 15:56:23 56° 282° (WNW) 16:03:42 435.465 / 435.565
AO-7 30 May 15:57:59 16:06:16 85° 72° (ENE) 16:14:39 29.400- 29.500
ITAMSAT 1 30 May 16:03:08 16:05:53 14° 272° (W) 16:08:23 435.822/435.867
JAS-2 30 May 16:09:43 16:16:17 72° 258° (WSW) 16:22:04 435.910
STARS 30 May 16:35:06 16:39:29 61° 286° (WNW) 16:43:48 437.465
BEESAT 2 30 May 16:43:30 16:46:49 24° 114° (ESE) 16:50:13 435.950
YUBILEINY 30 May 17:01:42 17:07:44 21° 62° (ENE) 17:14:09 435.215
AIST 2 30 May 17:01:48 17:02:23 10° 109° (ESE) 17:03:14 435.215
CUTE-I 30 May 17:04:36 17:07:45 17° 62° (ENE) 17:11:07 437.470
HORYU 2 30 May 17:10:48 17:13:16 14° 270° (W) 17:15:31 437.375
KKS-1 30 May 17:18:35 17:21:11 15° 296° (WNW) 17:23:37 437.445
Cubesat XI-IV 30 May 17:25:11 17:29:25 25° 66° (ENE) 17:33:46 437.490
BEESAT 3 30 May 17:26:12 17:30:17 90° 119° (ESE) 17:34:25 437.485
MOZHAYETS 4 30 May 17:37:59 17:42:35 84° 102° (ESE) 17:47:10
AO-7 30 May 17:54:21 18:00:10 19° 271° (W) 18:05:34 29.400- 29.500
RS-15 30 May 17:57:54 18:09:37 88° 237° (WSW) 18:21:47 29.354- 29.394
BEESAT 2 30 May 18:21:03 18:24:47 32° 310° (NW) 18:28:31 435.950
AIST 2 30 May 18:36:11 18:40:26 75° 303° (WNW) 18:44:44 435.215
CUTE-I 30 May 18:42:03 18:47:19 67° 258° (WSW) 18:52:40 437.470
YUBILEINY 30 May 18:57:05 19:05:48 82° 265° (W) 19:14:30 435.215
Cosmos 2491 30 May 19:01:22 19:09:52 58° 91° (E) 19:18:30 435.465 / 435.565
Cubesat XI-IV 30 May 19:04:18 19:09:19 42° 262° (W) 19:14:21 437.490
PRISM 30 May 19:06:51 19:10:06 22° 94° (E) 19:13:27 437.425
BEESAT 3 30 May 19:07:10 19:08:55 12° 321° (NW) 19:10:33 437.485
GOMX 1 30 May 19:08:09 19:11:01 15° 62° (ENE) 19:14:10 467.674
STRAND 1 30 May 19:09:25 19:13:33 25° 93° (E) 19:17:48 437.568
MOZHAYETS 4 30 May 19:18:15 19:19:12 10° 298° (WNW) 19:19:53
BRITE-PL 30 May 19:24:24 19:28:59 32° 68° (ENE) 19:33:54 437.365/2234.400
CUBESAT XI-V 30 May 19:27:59 19:32:43 84° 283° (WNW) 19:37:25 437.345
Cosmos 2504 30 May 19:31:22 19:35:11 15° 61° (ENE) 19:39:25 435.465 / 435.565
DOVE 4 30 May 19:47:45 19:51:43 23° 66° (ENE) 19:55:52 437.250
HO-68 30 May 19:52:52 19:59:23 40° 65° (ENE) 20:05:59 435.675
RS-15 30 May 20:12:14 20:20:51 23° 257° (WSW) 20:28:59 29.354- 29.394
CANX-2 30 May 20:16:18 20:20:12 37° 72° (ENE) 20:24:08 2200.000
AIST 2 30 May 20:18:24 20:19:50 11° 323° (NW) 20:21:06 435.215
CUTE 1.7 + AOD 2 30 May 20:19:14 20:23:06 36° 72° (ENE) 20:27:01 437.475
AIST 1 30 May 20:31:09 20:35:24 84° 96° (E) 20:39:44
CINEMA 3 30 May 20:32:14 20:36:30 29° 69° (ENE) 20:40:51 145.822/145.860
SEEDS 30 May 20:35:07 20:39:07 44° 73° (ENE) 20:43:08 437.485
COMPASS 1 30 May 20:41:42 20:45:37 41° 73° (ENE) 20:49:34 437.405
PRISM 30 May 20:41:56 20:45:35 29° 290° (WNW) 20:49:11 437.425
ZACube-1 30 May 20:42:33 20:43:48 11° 63° (ENE) 20:45:19 437.345
GOMX 1 30 May 20:43:14 20:48:28 77° 258° (WSW) 20:53:59 467.674
Oscar 11 30 May 20:43:37 20:46:34 19° 67° (ENE) 20:49:38 145.826/435.025
M-CUBED/EXP-1 PRIME 30 May 20:47:36 20:50:54 81° 289° (WNW) 20:54:17 437.505
STRAND 1 30 May 20:48:08 20:52:54 39° 290° (WNW) 20:57:39 437.568
AAUSAT CUBESAT 2 30 May 20:50:11 20:54:08 44° 73° (ENE) 20:58:07 437.432
DELFI C3 30 May 20:51:23 20:53:36 15° 67° (ENE) 20:55:58 145.870
AUBIESAT-1 30 May 20:51:43 20:55:02 84° 289° (WNW) 20:58:25 437.475
CUBEBUG 2 30 May 20:56:21 21:00:12 25° 69° (ENE) 21:04:06 437.445
YUBILEINY 30 May 20:56:44 21:01:26 15° 282° (WNW) 21:05:33 435.215
Cosmos 2491 30 May 20:59:37 21:07:19 31° 292° (WNW) 21:14:50 435.465 / 435.565
BRITE-PL 30 May 21:02:40 21:07:25 34° 266° (W) 21:12:25 437.365/2234.400
ISS 30 May 21:16:53 21:18:57 16° 132° (SE) 21:21:07 145.825
Cosmos 2504 30 May 21:22:33 21:29:46 88° 263° (W) 21:37:02 435.465 / 435.565
DOVE 4 30 May 21:24:08 21:29:08 47° 262° (W) 21:34:16 437.250
FUNcube-1 30 May 21:33:06 21:37:17 36° 71° (ENE) 21:41:27 145.935
UWE-3 30 May 21:34:04 21:38:34 48° 73° (ENE) 21:43:03 435.000/436.395/437.385
HUMSAT D 30 May 21:36:32 21:39:25 18° 67° (ENE) 21:42:24 437.325/437.525
